Regional Weather Roundup
Issued by NWS

Home | Current Version | Previous Version | Text Only | Print | Product List | Glossary On
Versions: 1 2 3 4 5 6 7 8 9 10 11 12 13 14 15 16 17 18 19 20 21 22 23 24 25 26 27
000
ASUS43 KDMX 211907
RWRIA

WEATHER ROUNDUP FOR IOWA
NATIONAL WEATHER SERVICE DES MOINES IA
200 PM CDT TUE OCT 21 2014

NOTE: "FAIR" INDICATES FEW OR NO CLOUDS BELOW 12,000 FEET WITH NO
SIGNIFICANT WEATHER AND/OR OBSTRUCTIONS TO VISIBILITY.

* - THESE STATIONS ARE NOT NWS STATIONS...THUS NOT UNDER NWS
QUALITY CONTROL.  THEY ALSO DO NOT REPORT WEATHER SUCH
AS PRECIPITATION OR FOG.

IAZ001>003-012>014-020>022-031>034-043>046-212000-
   NORTHWEST IOWA

CITY           SKY/WX    TMP DP  RH WIND       PRES   REMARKS
CARROLL *      SUNNY     70  41  35 S9        30.09F
CHEROKEE *     SUNNY     70  41  35 S9        30.06F
DENISON *      SUNNY     72  41  33 VRB5      30.05F
LE MARS *      SUNNY     73  41  31 S18       30.04F
ORANGE CITY *  SUNNY     73  36  25 S9G17     30.04F
SHELDON *      SUNNY     72  41  33 S14       30.04F
SIOUX CITY     SUNNY     74  42  31 S12       30.04F
SPENCER        SUNNY     68  43  40 SE14      30.08F
STORM LAKE *   SUNNY     68  41  37 S12G17    30.09F
$$

IAZ055>058-069>071-079>083-090>094-212000-
   SOUTHWEST IOWA

CITY           SKY/WX    TMP DP  RH WIND       PRES   REMARKS
ATLANTIC *     SUNNY     72  39  30 S5        30.08F
AUDUBON *      SUNNY     70  34  26 S6        30.10F
CLARINDA *     SUNNY     73  39  29 VRB6      30.10F
COUNCIL BLFS * SUNNY     72  43  35 S8        30.06F
CRESTON *      SUNNY     68  43  40 NE6       30.11F
HARLAN  *      SUNNY     72  41  33 CALM      30.11F
LAMONI         SUNNY     69  45  41 CALM      30.10F
RED OAK *      SUNNY     72  41  33 SE3       30.09F
SHENANDOAH *   SUNNY     72  41  33 VRB7      30.09F
$$

IAZ047>049-059>061-072>074-084-212000-
   CENTRAL IOWA

CITY           SKY/WX    TMP DP  RH WIND       PRES   REMARKS
AMES           SUNNY     63  44  50 SE9       30.12F
ANKENY *       SUNNY     64  45  48 E7G14     30.12F
CHARITON *     SUNNY     64  45  48 NE6       30.12F
DES MOINES     SUNNY     65  44  46 E7        30.12F
GRINNELL*      SUNNY     61  41  48 E7        30.16F
KNOXVILLE *    SUNNY     63  45  51 VRB6      30.12F
MARSHALLTOWN   SUNNY     60  43  53 SE8       30.14F
PELLA *        SUNNY     63  45  51 SE7       30.15F
PERRY *          N/A     68  45  42 SE10      30.10F
$$

IAZ004>006-015-016-023>025-035-036-212000-
   NORTH CENTRAL IOWA

CITY           SKY/WX    TMP DP  RH WIND       PRES   REMARKS
ALGONA *       SUNNY     64  43  45 SE12      30.11F
CLARION *      SUNNY     64  41  42 SE10G17   30.13F
ESTHERVILLE    SUNNY     65  41  41 S13G20    30.09F
FORT DODGE *   SUNNY     64  45  48 SE8       30.12F
MASON CITY     SUNNY     60  41  49 SE10      30.16F
FOREST CITY *  SUNNY     61  43  51 SE12G17   30.14S
IOWA FALLS *     N/A     61  41  48 E7        30.15F
$$

IAZ007>011-017>019-026>030-037>042-050>054-066-212000-
   NORTHEAST IOWA

CITY           SKY/WX    TMP DP  RH WIND       PRES   REMARKS
CEDAR RAPIDS   SUNNY     59  43  55 E8        30.16F
CHARLES CITY * SUNNY     59  41  51 SE8       30.17F
CLINTON *      SUNNY     55  37  50 NE10G16   30.21F
DECORAH *      SUNNY     55  39  54 VRB5      30.18F
DUBUQUE        SUNNY     54  38  54 NE8       30.18F
MONTICELLO *   SUNNY     57  39  51 NE9       30.17F
OELWEIN *      SUNNY     57  39  51 E10       30.17F
WATERLOO       SUNNY     59  41  51 E9        30.16F
$$

IAZ064-065-067-068-078-212000-
   EAST CENTRAL IOWA

CITY           SKY/WX    TMP DP  RH WIND       PRES   REMARKS
DAVENPORT      SUNNY     57  38  48 NE10      30.18F
IOWA CITY      SUNNY     59  42  53 NE9       30.18F
MT. PLEASANT * SUNNY     61  41  48 NE5       30.16S
MUSCATINE *    SUNNY     61  39  44 NE12      30.16F
QUAD CITIES    SUNNY     58  39  49 N8        30.17F
$$

IAZ062-063-075>077-085>089-095>099-212000-
   SOUTHEAST IOWA

CITY           SKY/WX    TMP DP  RH WIND       PRES   REMARKS
BURLINGTON     SUNNY     60  43  53 NE10      30.15F
FAIRFIELD *    SUNNY     61  41  48 E8        30.15F
FORT MADISON * SUNNY     63  45  51 NE7       30.16F
KEOKUK *       SUNNY     61  43  51 N9        30.14F
OSKALOOSA *      N/A     61  43  51 E9        30.15F
CENTERVILLE *  SUNNY     64  46  52 E8        30.14F
WASHINGTON *   SUNNY     61  41  48 NE7G16    30.16F
$$

ABBREVIATIONS USED IN REMARKS
   TC - TEMPERATURES IN CELSIUS
  WCI - WIND CHILL INDEX
   HX - HEAT INDEX
  VSB - VISIBILITY
$$




USA.gov is the U.S. government's official web portal to all federal, state and local government web resources and services.